User: anonymous   Login
Location: El Conde
(10.2895°N, 67.2409°W)
Time: 18:17:58
(UTC+00:00)
Language:

Cosmos 1666 - Orbit

View from above orbital plane
View from above orbital plane
View from above satellite
View from above satellite

Ground track
Ground track

The orbit data is extracted from the following two-line orbital elements,

1 15889U 85058A   24199.75159079  .00031303  00000-0  74561-3 0  9991
2 15889  82.4795 291.5650 0009324  16.3559 343.7986 15.41400983135399
Epoch (UTC): 17 July 2024 18:02:17
Eccentricity: 0.0009324
inclination: 82.4795°
perigee height: 435 km
apogee height: 448 km
right ascension of ascending node: 291.5650°
argument of perigee: 16.3559°
revolutions per day: 15.41400983
mean anomaly at epoch: 343.7986°
orbit number at epoch: 13539

The dashed part of the orbit path shows where the satellite is in the earth's shadow,  

DLR